(331798) = 2003 QP48

Discovered at Palomar on 2003-08-21 by NEAT.

Orbit

Orbit type: Main Belt

Note: WebGL enabled browser required.

epoch2024-03-31.0
epoch JD2460400.5
perihelion date2025-12-08.59195
perihelion JD2461018.09195
argument of perihelion (°)327.90744
ascending node (°)353.54464
inclination (°)1.61174
eccentricity0.2157870
perihelion distance (AU)1.8857910
Tisserand w.r.t. Jupiter3.5
ΔV w.r.t. Earth (km/sec)8.6
semimajor axis (AU)2.4046923
mean anomaly (°)196.76390
mean daily motion (°/day)0.26431060
aphelion distance (AU)2.924
period (years)3.73
P-vector [x]0.78211076
P-vector [y]-0.56561077
P-vector [z]-0.26150950
Q-vector [x]0.62313141
Q-vector [y]0.70776695
Q-vector [z]0.33282607
absolute magnitude17.64
phase slope0.15
uncertainty0
referenceMPEC 2024-C181
observations used265
oppositions13
arc length (days)8008
first opposition used2002
last opposition used2024
residual rms (arc-secs)0.77
perturbers coarse indicatorM-v
perturbers precise indicator003Ek
first observation date used2002-03-13.0
last observation date used2024-02-14.0
computer nameMPCLINUX
JD of orbit computation2456847.721060
perihelion JD uncertainty (days)7.7049E-05
argument of perihelion uncertainty (°)2.2932E-04
ascending node uncertainty (°)2.2816E-04
inclination uncertainty (°)7.9989E-06
eccentricity uncertainty 6.3049E-08
perihelion distance uncertainty (AU)1.5638E-07
Minimum Orbit Intersection Distances (in AU)
for orbit epoch: 2460400.5, reference: E2024-CI1
Mercury1.46623
Venus1.15852
Earth0.87321
Mars0.49865
Jupiter2.38614
Saturn6.23096
Uranus15.545
Neptune27.3079

Observations

269 total observations over interval: 2002 03 13.23004 – 2024 02 14.382721
These data are available for download (format description).

Date (UT) J2000 RA J2000 Dec Magn Location Ref
2002 03 13.23004 11 45 17.07 +01 32 50.5 21.5 V 291 – LPL/Spacewatch II MPS 171598
2002 03 13.25352 11 45 15.68 +01 32 58.3 21.6 V 291 – LPL/Spacewatch II MPS 171598
2002 03 13.27345 11 45 14.54 +01 33 05.0 21.5 V 291 – LPL/Spacewatch II MPS 171598
2003 08 21.42799 22 50 15.08 -08 40 16.1 18.6   644 – Palomar Mountain/NEAT MPS 83500
2003 08 21.45010 22 50 14.01 -08 40 20.2 18.8   644 – Palomar Mountain/NEAT MPS 83500
2003 08 21.47229 22 50 12.98 -08 40 23.7 19.6   644 – Palomar Mountain/NEAT MPS 83500
2003 08 23.31691 22 48 47.71 -08 46 29.4 18.8   644 – Palomar Mountain/NEAT MPS 83500
2003 08 23.39669 22 48 43.67 -08 46 45.1 19.2   644 – Palomar Mountain/NEAT MPS 83500
2003 08 23.46172 22 48 40.41 -08 46 57.7 18.8   644 – Palomar Mountain/NEAT MPS 83500
2003 08 25.27288 22 47 13.89 -08 53 07.7 19.6 C 704 – Lincoln Laboratory ETS, New Mexico MPS 290165
2003 08 25.28540 22 47 13.15 -08 53 08.8 19.0 C 704 – Lincoln Laboratory ETS, New Mexico MPS 290165
2003 08 25.29826 22 47 12.39 -08 53 12.9 19.1 C 704 – Lincoln Laboratory ETS, New Mexico MPS 290165
2003 08 25.31082 22 47 11.82 -08 53 14.6 18.7 C 704 – Lincoln Laboratory ETS, New Mexico MPS 290165
2003 08 25.32325 22 47 11.12 -08 53 16.3 19.1 C 704 – Lincoln Laboratory ETS, New Mexico MPS 290165
2003 08 26.99899 22 45 48.70 -08 59 06.5 18.5 R 106 – Crni Vrh MPS 84110
2003 08 27.00983 22 45 48.11 -08 59 09.0 18.8 R 106 – Crni Vrh MPS 84110
2003 08 27.02058 22 45 47.52 -08 59 11.4 18.3 R 106 – Crni Vrh MPS 84110
2003 09 01.24718 22 41 24.58 -09 17 21.3 19.0   704 – Lincoln Laboratory ETS, New Mexico MPS 84110
2003 09 01.25901 22 41 23.88 -09 17 24.1 19.6   704 – Lincoln Laboratory ETS, New Mexico MPS 84110
2003 09 01.27076 22 41 23.25 -09 17 26.3 19.3   704 – Lincoln Laboratory ETS, New Mexico MPS 84110
2003 09 01.28262 22 41 22.58 -09 17 28.2 19.6   704 – Lincoln Laboratory ETS, New Mexico MPS 84110
2003 09 01.29453 22 41 22.05 -09 17 32.0 19.6   704 – Lincoln Laboratory ETS, New Mexico MPS 84110
2003 09 05.03391 22 38 14.05 -09 30 07.2 19.1 R 106 – Crni Vrh MPS 84110
2003 09 05.03449 22 38 14.02 -09 30 07.6 18.7 R 106 – Crni Vrh MPS 84110
2003 09 05.03955 22 38 13.77 -09 30 09.0 19.3 R 106 – Crni Vrh MPS 84110
2003 09 05.04013 22 38 13.76 -09 30 08.6 18.6 R 106 – Crni Vrh MPS 84110
2003 09 05.04710 22 38 13.38 -09 30 10.6 18.8 R 106 – Crni Vrh MPS 84110
2003 09 05.04767 22 38 13.36 -09 30 11.2 19.2 R 106 – Crni Vrh MPS 84110
2003 09 05.36408 22 37 58.12 -09 31 09.8 20.3   608 – Haleakala-AMOS MPS 84110
2003 09 05.37480 22 37 57.58 -09 31 11.5 20.5   608 – Haleakala-AMOS MPS 84110
2003 09 05.38554 22 37 56.97 -09 31 13.8 20.2   608 – Haleakala-AMOS MPS 84110
2003 09 18.19043 22 28 34.93 -10 04 59.6 19.1 R 699 – Lowell Observatory-LONEOS MPS 85271
2003 09 18.20876 22 28 34.26 -10 05 01.2   699 – Lowell Observatory-LONEOS MPS 85271
2003 09 18.22711 22 28 33.47 -10 05 04.2   699 – Lowell Observatory-LONEOS MPS 85271
2003 09 18.24531 22 28 32.86 -10 05 05.3   699 – Lowell Observatory-LONEOS MPS 85271
2003 09 29.19078 22 23 37.79 -10 16 15.5 19.9 V 291 – LPL/Spacewatch II MPS 86949
2003 09 29.19781 22 23 37.66 -10 16 15.8 19.8 V 291 – LPL/Spacewatch II MPS 86949
2003 09 29.20482 22 23 37.50 -10 16 15.7 19.9 V 291 – LPL/Spacewatch II MPS 86949
2006 04 19.27626 13 07 31.11 -08 33 58.3 21.1 V G96 – Mt. Lemmon Survey MPS 170808
2006 04 19.28484 13 07 30.61 -08 33 55.5 20.9 V G96 – Mt. Lemmon Survey MPS 170808
2006 04 19.29322 13 07 30.10 -08 33 52.9 20.9 V G96 – Mt. Lemmon Survey MPS 170808
2006 04 19.30181 13 07 29.60 -08 33 50.3 20.9 V G96 – Mt. Lemmon Survey MPS 170808
2006 05 03.14764 12 55 23.52 -07 24 54.8 21.3 V 691 – Steward Observatory, Kitt Peak-Spacewatch MPS 170808
2006 05 03.16566 12 55 22.68 -07 24 50.5 21.3 V 691 – Steward Observatory, Kitt Peak-Spacewatch MPS 170808
2006 05 03.18367 12 55 21.78 -07 24 45.5 21.2 V 691 – Steward Observatory, Kitt Peak-Spacewatch MPS 170808
2007 10 05.32692 02 38 27.65 +17 10 16.1   691 – Steward Observatory, Kitt Peak-Spacewatch MPS 218075
2007 10 05.34454 02 38 26.90 +17 10 13.8   691 – Steward Observatory, Kitt Peak-Spacewatch MPS 218075
2007 10 05.36217 02 38 26.11 +17 10 11.9   691 – Steward Observatory, Kitt Peak-Spacewatch MPS 218075
2007 10 09.27222 02 35 30.26 +17 01 25.4 19.9 V 691 – Steward Observatory, Kitt Peak-Spacewatch MPS 218572
2007 10 09.28985 02 35 29.41 +17 01 22.8 20.1 V 691 – Steward Observatory, Kitt Peak-Spacewatch MPS 218572
2007 10 09.30749 02 35 28.49 +17 01 19.9 20.0 V 691 – Steward Observatory, Kitt Peak-Spacewatch MPS 218572
2007 10 11.26106 02 33 51.56 +16 56 03.9 19.6   704 – Lincoln Laboratory ETS, New Mexico MPS 220388
2007 10 11.27210 02 33 50.82 +16 56 03.3 20.4   704 – Lincoln Laboratory ETS, New Mexico MPS 220388
2007 10 11.28325 02 33 50.29 +16 56 01.2 20.1   704 – Lincoln Laboratory ETS, New Mexico MPS 220388
2007 10 11.29429 02 33 49.76 +16 55 59.2 20.0   704 – Lincoln Laboratory ETS, New Mexico MPS 220388
2007 10 13.26838 02 32 06.13 +16 50 06.2 19.9 V 691 – Steward Observatory, Kitt Peak-Spacewatch MPS 220388
2007 10 13.28604 02 32 05.11 +16 50 02.7 20.1 V 691 – Steward Observatory, Kitt Peak-Spacewatch MPS 220388
2007 10 13.30114 02 32 04.28 +16 49 59.6 19.9 V 691 – Steward Observatory, Kitt Peak-Spacewatch MPS 220388
2007 10 14.25990 02 31 12.26 +16 46 56.7 19.6   704 – Lincoln Laboratory ETS, New Mexico MPS 220388
2007 10 14.27099 02 31 11.62 +16 46 53.8 20.2   704 – Lincoln Laboratory ETS, New Mexico MPS 220388
2007 10 14.28211 02 31 10.93 +16 46 52.3 20.2   704 – Lincoln Laboratory ETS, New Mexico MPS 220388
2007 10 14.29323 02 31 10.27 +16 46 50.0 20.4   704 – Lincoln Laboratory ETS, New Mexico MPS 220388
2007 10 14.30435 02 31 09.67 +16 46 48.6 20.6   704 – Lincoln Laboratory ETS, New Mexico MPS 220388
2007 10 20.29944 02 25 22.26 +16 25 08.7 19.7 V 703 – Catalina Sky Survey MPS 222464
2007 10 20.30758 02 25 21.68 +16 25 06.8 19.8 V 703 – Catalina Sky Survey MPS 222464
2007 10 20.31571 02 25 21.28 +16 25 03.8 19.8 V 703 – Catalina Sky Survey MPS 222464
2007 10 20.32383 02 25 20.67 +16 25 02.1 20.1 V 703 – Catalina Sky Survey MPS 222464
2007 11 11.17759 02 03 37.40 +14 47 46.2 19.5 V G96 – Mt. Lemmon Survey MPS 226788
2007 11 11.18380 02 03 37.08 +14 47 44.5 20.3 V G96 – Mt. Lemmon Survey MPS 226788
2007 11 11.18998 02 03 36.75 +14 47 42.8 20.2 V G96 – Mt. Lemmon Survey MPS 226788
2007 11 11.19606 02 03 36.43 +14 47 41.7 20.2 V G96 – Mt. Lemmon Survey MPS 226788
2010 05 11.31833 15 31 30.86 -21 39 07.4 19.7 V G96 – Mt. Lemmon Survey MPS 326320
2010 05 11.31891 15 31 30.82 -21 39 06.9 19.8 V G96 – Mt. Lemmon Survey MPS 326320
2010 05 11.32547 15 31 30.43 -21 39 06.1 20.0 V G96 – Mt. Lemmon Survey MPS 326320
2010 05 11.32608 15 31 30.39 -21 39 05.6 19.8 V G96 – Mt. Lemmon Survey MPS 326320
2010 05 11.33259 15 31 29.92 -21 39 05.2 20.2 V G96 – Mt. Lemmon Survey MPS 326320
2010 05 11.33318 15 31 29.89 -21 39 04.3 19.9 V G96 – Mt. Lemmon Survey MPS 326320
2010 05 11.33977 15 31 29.49 -21 39 03.7 19.7 V G96 – Mt. Lemmon Survey MPS 326320
2010 05 11.34036 15 31 29.46 -21 39 03.1 20.0 V G96 – Mt. Lemmon Survey MPS 326320
2011 11 24.41497 05 02 38.07 +25 23 16.2 20.8 V G96 – Mt. Lemmon Survey MPS 426473
2011 11 24.43006 05 02 37.06 +25 23 14.9 20.4 V G96 – Mt. Lemmon Survey MPS 426473
2011 11 24.43751 05 02 36.56 +25 23 14.5 20.6 V G96 – Mt. Lemmon Survey MPS 426473
2011 11 28.21165 04 58 20.00 +25 18 34.2 21.3 V 691 – Steward Observatory, Kitt Peak-Spacewatch MPS 402339
2011 11 28.22695 04 58 18.91 +25 18 33.0 20.9 V 691 – Steward Observatory, Kitt Peak-Spacewatch MPS 402339
2011 11 28.24224 04 58 17.81 +25 18 32.2 20.7 V 691 – Steward Observatory, Kitt Peak-Spacewatch MPS 402339
2014 06 27.47460 19 30 02.271 -24 59 04.76 19.9 w F51 – Pan-STARRS 1, Haleakala MPS 521233
2014 06 27.48457 19 30 01.766 -24 59 05.93 20.0 w F51 – Pan-STARRS 1, Haleakala MPS 521233
2014 06 27.49452 19 30 01.261 -24 59 07.02 20.0 w F51 – Pan-STARRS 1, Haleakala MPS 521233
2014 07 07.48789 19 21 19.615 -25 16 08.84 19.5 w F51 – Pan-STARRS 1, Haleakala MPS 522763
2014 07 07.51753 19 21 17.834 -25 16 11.36 19.6 w F51 – Pan-STARRS 1, Haleakala MPS 522763
2017 02 21.53131 12 30 48.945 -03 27 15.42 21.6 w F51 – Pan-STARRS 1, Haleakala MPS 771632
